This is the latest recevied weather packets stored in our database for station/object OE5RBO. If no packets are shown the sender has not sent any weather packets the latest 10 day(s).
| Time | Temp. | Humidity | Pressure | Rain* | Wind** | Luminosity | Snow |
|---|---|---|---|---|---|---|---|
| 1777919887 | 21.67° C | 57% | 1009.6 hPa | 0 mm | - | - | - |
| 1777919286 | 21.67° C | 55% | 1009.7 hPa | 0 mm | - | - | - |
| 1777918086 | 22.22° C | 55% | 1009.6 hPa | 0 mm | - | - | - |
| 1777916885 | 22.78° C | 54% | 1009.7 hPa | 0 mm | - | - | - |
| 1777916285 | 22.78° C | 54% | 1009.7 hPa | 0 mm | - | - | - |
| 1777915684 | 23.33° C | 54% | 1009.6 hPa | 0 mm | - | - | - |
| 1777914484 | 23.33° C | 54% | 1009.6 hPa | 0 mm | - | - | - |
| 1777913883 | 23.89° C | 52% | 1009.6 hPa | 0 mm | - | - | - |
| 1777913283 | 23.89° C | 51% | 1009.6 hPa | 0 mm | - | - | - |
| 1777912082 | 24.44° C | 51% | 1009.6 hPa | 0 mm | - | - | - |
| 1777911482 | 24.44° C | 48% | 1009.6 hPa | 0 mm | - | - | - |
| 1777910882 | 24.44° C | 48% | 1009.6 hPa | 0 mm | - | - | - |
| 1777910281 | 25° C | 48% | 1009.6 hPa | 0 mm | - | - | - |
| 1777909080 | 25.56° C | 47% | 1009.5 hPa | 0 mm | - | - | - |
| 1777908480 | 26.11° C | 46% | 1009.5 hPa | 0 mm | - | - | - |
| 1777907880 | 26.11° C | 45% | 1009.6 hPa | 0 mm | - | - | - |
| 1777907279 | 26.67° C | 45% | 1009.6 hPa | 0 mm | - | - | - |
| 1777906679 | 26.11° C | 48% | 1009.6 hPa | 0 mm | - | - | - |
| 1777906078 | 26.11° C | 44% | 1009.7 hPa | 0 mm | - | - | - |
| 1777904878 | 26.11° C | 45% | 1009.7 hPa | 0 mm | - | - | - |
| 1777903677 | 26.67° C | 44% | 1009.9 hPa | 0 mm | - | - | - |
| 1777903077 | 25.56° C | 45% | 1010 hPa | 0 mm | - | - | - |
| 1777902476 | 26.67° C | 45% | 1010.1 hPa | 0 mm | - | - | - |
| 1777901876 | 26.67° C | 44% | 1010.2 hPa | 0 mm | - | - | - |
| 1777901276 | 26.67° C | 46% | 1010.4 hPa | 0 mm | - | - | - |
* Rain since midnight (hover to see other rain measurements)
** Current wind speed in m/s (hover to see current wind gust speed)